North Platte, NE

4:35 AM CDT on August 30, 2016 (GMT -0500)
North Platte Regional-Bird

Weather History for KLBF - February, 2012

Change the Weather History Date:

Monday, February 13, 2012

  Actual Average Record
Temperature  
Mean Temperature 24 °F 28 °F  
Max Temperature 38 °F 42 °F 70 °F (1967)
Min Temperature 10 °F 14 °F -27 °F (1905)
Degree Days  
Heating Degree Days 41 37  
Month to date heating degree days 544 493  
Since 1 July heating degree days 4200 4513  
Cooling Degree Days 0 0  
Month to date cooling degree days 0 0  
Year to date cooling degree days 0 0  
Moisture  
Dew Point 18 °F    
Average Humidity 80    
Maximum Humidity 100    
Minimum Humidity 59    
Precipitation  
Precipitation 0.12 in 0.02 in 0.46 in (2009)
Month to date precipitation 1.18 0.18  
Year to date precipitation 1.30 0.52  
Snow  
Snow 2.00 in 0.20 in 8.30 in (2009)
Month to date snowfall 8.9 2.4  
Since 1 July snowfall 15.6 18.0  
Snow Depth 2.00 in    
Sea Level Pressure  
Sea Level Pressure 29.74 in    
Wind  
Wind Speed 3 mph (SSE)    
Max Wind Speed 14 mph    
Max Gust Speed 20 mph    
Visibility 4 miles    
Events Snow    
T = Trace of Precipitation, MM = Missing Value Source: NWS Daily Summary

Daily Weather History Graph

Daily Weather History Graph

Search for Another Location

Airport or City:

Trip Planner

Search our weather history database for the weather conditions in past years. The results will help you decide how hot, cold, wet, or windy it might be!

Date:

Astronomy

Feb. 13, 2012 Rise Set
Actual Time 7:40 AM CST 6:13 PM CST
Civil Twilight 7:12 AM CST 6:42 PM CST
Nautical Twilight 6:39 AM CST 7:14 PM CST
Astronomical Twilight 6:07 AM CST 7:46 PM CST
Moon 12:17 AM CST (2/13) 10:36 AM CST (2/13)
Length of Visible Light 11h 30m
Length of Day
10h 33m
Waning Gibbous, 61% of the Moon is Illuminated
Feb 13
Waning Gibbous
Feb 14
Last Quarter
Feb 21
New
Feb 29
First Quarter
Mar 8
Full

Hourly Weather History & Observations

Time (CST) Temp. Windchill Dew Point Humidity Pressure Visibility Wind Dir Wind Speed Gust Speed Precip Events Conditions
12:22 AM 19.4 °F 7.9 °F 15.8 °F 86% 29.77 in 10.0 mi SE 10.4 mph - N/A   Overcast
12:48 AM 19.4 °F 7.9 °F 15.8 °F 86% 29.77 in 1.8 mi SE 10.4 mph - 0.00 in Snow Light Snow
12:51 AM 19.4 °F 8.6 °F 15.8 °F 86% 29.77 in 1.0 mi SE 9.2 mph - 0.00 in Snow Light Snow
12:53 AM 19.9 °F 10.1 °F 15.1 °F 81% 29.86 in 0.8 mi SE 8.1 mph - 0.00 in Snow Light Snow
1:17 AM 19.4 °F 8.6 °F 17.6 °F 93% 29.75 in 1.2 mi SE 9.2 mph - 0.02 in Snow Light Snow
1:19 AM 19.4 °F 9.5 °F 17.6 °F 93% 29.75 in 1.5 mi SE 8.1 mph - 0.02 in Snow Light Snow
1:29 AM 19.4 °F 10.4 °F 15.8 °F 86% 29.75 in 2.5 mi SE 6.9 mph - 0.03 in Snow Light Snow
1:36 AM 19.4 °F 9.5 °F 15.8 °F 86% 29.75 in 4.0 mi SE 8.1 mph - 0.03 in Snow Light Snow
1:53 AM 19.9 °F 11.1 °F 16.0 °F 85% 29.83 in 8.0 mi SSE 6.9 mph - 0.03 in   Overcast
2:51 AM 19.4 °F 12.8 °F 17.6 °F 93% 29.72 in 4.0 mi ESE 4.6 mph - 0.00 in Snow Light Snow
2:53 AM 19.9 °F 12.1 °F 17.1 °F 89% 29.81 in 4.0 mi ESE 5.8 mph - 0.01 in Snow Light Snow
3:13 AM 19.4 °F 14.3 °F 17.6 °F 93% 29.71 in 2.5 mi ESE 3.5 mph - 0.00 in Snow Light Snow
3:26 AM 19.4 °F 14.3 °F 17.6 °F 93% 29.70 in 2.5 mi ESE 3.5 mph - 0.00 in Snow Light Snow
3:33 AM 19.4 °F 12.8 °F 17.6 °F 93% 29.70 in 3.0 mi ESE 4.6 mph - 0.00 in Snow Light Snow
3:53 AM 19.9 °F 14.9 °F 18.0 °F 92% 29.79 in 3.0 mi ESE 3.5 mph - 0.00 in Snow Light Snow
4:10 AM 19.4 °F 14.3 °F 17.6 °F 93% 29.69 in 5.0 mi ESE 3.5 mph - 0.00 in   Overcast
4:39 AM 21.2 °F 16.4 °F 17.6 °F 86% 29.69 in 2.5 mi ESE 3.5 mph - 0.01 in Snow Light Snow
4:43 AM 21.2 °F - 17.6 °F 86% 29.69 in 3.0 mi Calm Calm - 0.01 in Snow Light Snow
4:50 AM 21.2 °F - 19.4 °F 93% 29.69 in 3.0 mi Calm Calm - 0.01 in Snow Light Snow
4:53 AM 21.0 °F - 18.0 °F 88% 29.78 in 3.0 mi Calm Calm - 0.01 in Snow Light Snow
5:12 AM 21.2 °F - 19.4 °F 93% 29.69 in 3.0 mi Calm Calm - 0.00 in Snow Light Snow
5:23 AM 21.2 °F - 19.4 °F 93% 29.69 in 2.5 mi Calm Calm - 0.00 in Snow Light Snow
5:34 AM 21.2 °F - 17.6 °F 86% 29.69 in 1.5 mi Calm Calm - 0.00 in Snow Light Snow
5:53 AM 21.0 °F - 19.0 °F 92% 29.78 in 1.5 mi Calm Calm - 0.01 in Snow Light Snow
5:57 AM 21.2 °F - 19.4 °F 93% 29.68 in 2.0 mi Calm Calm - 0.00 in Snow Light Snow
6:07 AM 21.2 °F - 19.4 °F 93% 29.68 in 1.8 mi Calm Calm - 0.00 in Snow Light Snow
6:17 AM 21.2 °F - 19.4 °F 93% 29.68 in 1.2 mi Calm Calm - 0.01 in Snow Light Snow
6:53 AM 21.0 °F - 19.0 °F 92% 29.78 in 1.2 mi Calm Calm - 0.02 in Snow Light Snow
7:13 AM 21.2 °F - 19.4 °F 93% 29.67 in 1.8 mi Calm Calm - 0.01 in Snow Light Snow
7:51 AM 21.2 °F - 19.4 °F 93% 29.68 in 1.0 mi Calm Calm - 0.02 in Snow Light Snow
7:53 AM 21.0 °F - 19.0 °F 92% 29.77 in 0.8 mi Calm Calm - 0.02 in Snow Light Snow
8:15 AM 21.2 °F - 19.4 °F 93% 29.68 in 1.0 mi Calm Calm - 0.01 in Snow Light Snow
8:21 AM 21.2 °F - 19.4 °F 93% 29.68 in 1.5 mi Calm Calm - 0.01 in Snow Light Snow
8:53 AM 21.0 °F 16.2 °F 19.0 °F 92% 29.78 in 1.5 mi NW 3.5 mph - 0.01 in Snow Light Snow
9:19 AM 21.2 °F 16.4 °F 19.4 °F 93% 29.69 in 2.0 mi WNW 3.5 mph - 0.01 in Snow Light Snow
9:36 AM 21.2 °F 16.4 °F 19.4 °F 93% 29.69 in 1.5 mi WNW 3.5 mph - 0.01 in Snow Light Snow
9:46 AM 23.0 °F 18.4 °F 19.4 °F 86% 29.69 in 2.0 mi WNW 3.5 mph - 0.01 in Snow Light Snow
9:53 AM 23.0 °F 18.4 °F 19.9 °F 88% 29.79 in 3.0 mi West 3.5 mph - 0.01 in Snow Light Snow
10:01 AM 23.0 °F 17.0 °F 19.4 °F 86% 29.69 in 6.0 mi West 4.6 mph - 0.00 in   Mostly Cloudy
10:53 AM 26.1 °F 18.4 °F 19.9 °F 78% 29.78 in 3.0 mi WNW 6.9 mph - 0.00 in   Haze
11:53 AM 28.0 °F 20.0 °F 21.0 °F 75% 29.78 in 10.0 mi WNW 8.1 mph - N/A   Partly Cloudy
12:53 PM 30.0 °F 21.1 °F 23.0 °F 75% 29.76 in 10.0 mi WNW 10.4 mph - N/A   Clear
1:53 PM 33.1 °F 28.7 °F 24.1 °F 70% 29.73 in 10.0 mi NW 4.6 mph - N/A   Clear
2:53 PM 35.1 °F 31.0 °F 25.0 °F 67% 29.73 in 9.0 mi NW 4.6 mph - N/A   Clear
3:53 PM 37.0 °F - 24.1 °F 59% 29.73 in 10.0 mi Calm Calm - N/A   Clear
4:53 PM 33.1 °F - 24.1 °F 70% 29.75 in 10.0 mi Calm Calm - N/A   Clear
5:53 PM 28.9 °F 25.2 °F 21.9 °F 75% 29.76 in 10.0 mi South 3.5 mph - N/A   Clear
6:53 PM 24.1 °F - 18.0 °F 77% 29.79 in 7.0 mi Calm Calm - N/A   Clear
7:53 PM 19.0 °F - 16.0 °F 88% 29.82 in 6.0 mi Calm Calm - N/A   Clear
8:53 PM 18.0 °F - 15.1 °F 88% 29.82 in 4.0 mi Calm Calm - N/A   Clear
9:10 PM 15.8 °F - 12.2 °F 86% 29.72 in 1.2 mi Calm Calm - N/A   Clear
9:20 PM 15.8 °F - 12.2 °F 86% 29.72 in 0.8 mi Calm Calm - N/A   Clear
9:26 PM 15.8 °F - 12.2 °F 86% 29.72 in 2.0 mi Calm Calm - N/A   Clear
9:33 PM 15.8 °F 10.2 °F 12.2 °F 86% 29.72 in 4.0 mi NNW 3.5 mph - N/A   Clear
9:53 PM 12.9 °F - 12.9 °F 100% 29.84 in 6.0 mi Calm Calm - N/A   Clear
10:53 PM 12.0 °F 5.9 °F 10.0 °F 92% 29.86 in 5.0 mi WNW 3.5 mph - N/A   Clear
11:53 PM 12.0 °F 5.9 °F 10.9 °F 95% 29.85 in 6.0 mi West 3.5 mph - N/A   Clear